Regional Weather Roundup
Issued by NWS Goodland, KS

Home | Current Version | Previous Version | Graphics & Text | Print | Product List | Glossary On
Versions: 1 2 3 4 5 6 7 8 9 10 11 12 13 14 15 16 17 18 19 20 21 22 23 24 25 26 27 28 29 30 31 32 33 34 35 36 37 38 39 40 41 42 43 44 45 46 47 48 49 50
000
ASUS43 KGLD 271008
RWRGLD

GOODLAND FORECAST AREA HOURLY WEATHER ROUNDUP
NATIONAL WEATHER SERVICE GOODLAND KS
400 AM MDT WED MAY 27 2015

...OFFICIAL OBSERVATIONS...

CITY           SKY/WX    TMP DP  RH WIND       PRES   REMARKS
GOODLAND KS    CLOUDY    54  52  93 SE13      30.06F
HILL CITY KS   PTCLDY    50  48  93 SW3       30.06R
IMPERIAL NEB   CLOUDY    54  49  83 S10       30.06S
MCCOOK NEB     MOCLDY    51  48  89 SW5       30.06R
AKRON CO       MOCLDY    52  50  93 S9        30.05S
BURLINGTON CO  CLOUDY    54  50  86 S13       30.07S
LIMON CO       CLOUDY    51  47  86 SW9       30.09R
$$

...UNOFFICIAL OBSERVATIONS...

CITY           SKY/WX    TMP DP  RH WIND       PRES   REMARKS
COLBY KS       CLOUDY    57  54  88 S7        30.09S
GOVE KS          N/A     52  32  46 MISG        N/A
LENORA KS        N/A     56  32  40 MISG        N/A
NORTON KS      CLEAR     48  45  87 SW6       30.06R
SHARON SPRINGS   N/A     55  53  93 MISG        N/A
KIT CARSON CO    N/A     55  51  85 MISG        N/A
$$



USA.gov is the U.S. government's official web portal to all federal, state and local government web resources and services.